User: anonymous   Login
Location: Unspecified
(0.0000°N, 0.0000°E)
Time: 19:26:34
(UTC+00:00)
Language:

Aussat K3 - Orbit

View from above orbital plane
View from above orbital plane
View from above satellite
View from above satellite

Ground track
Ground track

The orbit data is extracted from the following two-line orbital elements,

1 18350U 87078A   14354.23854325 -.00000031  00000-0  00000+0 0  2016
2 18350 013.9114 027.8241 0005649 248.3562 105.4530 00.98906616 99007
Epoch (UTC): 20 December 2014 05:43:30
Eccentricity: 0.0005649
inclination: 13.9114°
perigee height: 36149 km
apogee height: 36197 km
right ascension of ascending node: 27.8241°
argument of perigee: 248.3562°
revolutions per day: 0.98906616
mean anomaly at epoch: 105.4530°
orbit number at epoch: 9900

The dashed part of the orbit path shows where the satellite is in the earth's shadow,  

DLR